Tracking 21612 objects as of 20-Oct-2020
HD Live streaming from Space Station
objects crossing your sky now

NIMBUS 3


NIMBUS 3 is no longer on orbit


NORAD ID: 3890
Int'l Code: 1969-037A
Perigee: N/A
Apogee: N/A
Inclination: N/A
Period: N/A
Semi major axis: N/A
RCS: N/A
Launch date: April 14, 1969
Source: United States (US)
Launch site: AIR FORCE WESTERN TEST RANGE (AFWTR)
Decay date: 1972-01-22
aabbcc
Your satellite tracking list
Your tracking list is empty




NASA's NSSDC Master Catalog

Two Line Element Set (TLE):
1  3890U 69037A   20293.96615980 -.00000023 +00000-0 +37761-4 0  9999
2  3890 099.8938 199.0445 0039177 324.1814 046.7453 13.42536874523518
Source of the keplerian elements: AFSPC